{"data":{"norad_id":65655,"epoch":"2026-05-25T01:59:23.068032Z","epoch_age_seconds":57948,"freshness":"FRESH","line1":"1 65655U 25211D   26145.08290588 -.00007041  00000+0 -48465-3 0  9999","line2":"2 65655  97.4533 188.9527 0000742 188.0588 172.0627 15.05633954 38536","mean_motion":15.05633954,"eccentricity":7.42e-5,"inclination_deg":97.4533,"raan_deg":188.9527,"arg_perigee_deg":188.0588,"mean_anomaly_deg":172.0627,"bstar":-0.00048465,"rev_number":3853,"period_min":95.640776177661,"perigee_km":549.04633884526,"apogee_km":550.07440913556,"semimajor_km":6927.6973739904,"source":"CELESTRAK","updated_at":"2026-05-25T13:38:20.888171Z"}}